Weather in Saqqez

Iran     36°14′27″N   46°16′21″E
temp.,
°C
wind,
m/s
gust,
m/s
humid.,
%
clouds,
%
prec.,
mm/h
press.,
hPa
HPBL,
m
5 august, thu
thu501:30+20ne115316 0.0 101314
04:30+19nnw21572 0.0 101211
07:30+20n115367 0.0 101313
10:30+25ene353514 0.0 10121096
13:30+31e751871 0.0 10093694
16:30+32e7516100 0.0 10063913
19:30+29n6822100 0.2 10071855
22:30+25nnw3633100 0.3 1010511
6 august, fri
fri601:30+23ene223862 0.0 101047
04:30+21ene114299 0.2 100911
07:30+22e123920 0.0 101018
10:30+28ese89236 0.0 10091758
13:30+32e761891 0.0 10063730
16:30+31se231958 0.3 10052953
19:30+23s8144290 0.1 1007400
22:30+23sse393991 0.2 1010647
7 august, sat
sat701:30+23sse233793 0.0 100871
04:30+21nw224266 0.0 100813
07:30+21n114224 0.0 100911
10:30+27ese12255 0.0 1008817
13:30+32s031772 0.1 10063586
16:30+32sw541791 0.1 10043896
19:30+30ssw762179 0.1 10061853
22:30+26se122962 0.2 100928
8 august, sun
sun801:30+23s11365 0.0 101011
04:30+21ne11395 0.0 101011
07:30+22n11425 0.0 101211
10:30+28ene22282 0.0 1011857
13:30+32e151769 0.0 10093773
16:30+30w862273 0.1 10102585
19:30+29nne232421 0.1 1010610
22:30+25w113517 0.2 101237
9 august, mon
mon901:30+23se1140100 0.0 101211
04:30+21nw11424 0.0 101111
07:30+22se11410 0.0 101211
10:30+29e34241 0.0 1011949
13:30+35se3512100 0.0 10084507
16:30+35sw661295 0.0 10074177
19:30+33nw1314100 0.0 10082429
22:30+27w331836 0.0 101142